YAOGAN 29 DEB, 42673

Orbit data source: Space-Track

YAOGAN 29 DEB, 42673 is space debris in SSO originally from a launch on Thu, 26 Nov 2015 UTC launched from the Taiyaun Space Center, China (TSC). Debris objects in space refer to the collection of defunct objects orbiting the Earth. Examples of debris include non-operational satellites, rocket bodies, and fragments generated from explosions, collisions, or faulty payload assembly.

Loading next visibility...
Identifier
42673, 2015-069F
Orbit
SSO
Country
Flag of CNCN / PRC
Related business
Manufacturer
Unknown
Mission
Spacecraft
Bus & Motor
Unknown
Mass
Unknown
Launch date (UTC)
2015-11-26 (10 years ago)
Launch vehicle
Unknown
Launch site
Taiyaun Space Center, China (TSC)
Object type
Payload
Rocket body
Debris
Shape & HBR
Unknown shape, 0.1 m
Radar Cross Section
Small (<0.1 m²)

Expand to show TLE details & history
Last TLE update: 3 days ago

TLE from 3 days ago
0 YAOGAN 29 DEB
1 42673U 15069F   25301.31605606  .00001891  00000-0  19949-3 0  9995
2 42673  97.9053 332.2167 0004626  66.6498 293.5206 14.90501180537436
Epoch: 2025-10-28T07:35Z
TLE epoch observation values (Epoch: 2025-10-28T07:35:07.243Z)
Latitude
-0.00003°
Longitude
-178.46877°
Altitude
598.121 km
Speed
7.561 km/s
True Right ascension
22h 08m 52s
True Declination
0° 00' 00"
Sunlit
Object was in full shadow at epoch
Visualization orbit readout
Latitude
Unknown
Longitude
Unknown
Altitude
Unknown
Speed
Unknown
Apparent Right ascension
Unknown
Apparent Declination
Unknown
Sunlit
N/A
Visualization observer readout
Local Sidereal Time
23:54:35
Azimuth
Unknown
Elevation
Unknown
Doppler factor
Unknown
Orbital elements
Apogee altitude
596.624 km
Perigee altitude
590.174 km
Semi-major axis
6,971.536 km
Eccentricity
0.00046
Inclination
97.9053°
RAAN
332.2167°
Arg. of periapsis
66.6498°
True anomaly
293.47198°
Mean anomaly
293.5206°
Eccentric anomaly
293.49629°
Mean motion
3.72864 °/min
Orbital period
96.55 mins
BSTAR
0.00019949
Loading maneuver chart data...
Computing Atmospheric mass density...
Loading historical data...
Loading historical data...
Loading historical data...
Loading historical data...
Loading historical data...
Loading historical data...
Loading historical data...
Other satellites on launch #69 in the year 2015 (2015-11-26 UTC)

Documentation

Showing up to 5 results
|